National Weather Service United States Department of Commerce

Latest Hourly Weather Roundup

TOPSWRTT 000
TTAA00 KICT 291812

Wichita AWIPS Roundup
National Weather Service Wichita KS
1200 PM CST SUN JAN 29 2023

....Central Kansas....
  
CITY           SKY/WX    TMP DP  RH WIND       PRES   REMARKS
RUSSELL        CLOUDY     7  -2  66 N17       30.37S WCI -12          
6HR MIN TEMP:   6; 6HR MAX TEMP:   7;                                

SALINA         CLOUDY    14   0  53 N15       30.39F WCI  -1          
6HR MIN TEMP:   9; 6HR MAX TEMP:  14;                                

GREAT BEND     CLOUDY    10   2  69 N20       30.35S WCI  -9          
6HR MIN TEMP:   8; 6HR MAX TEMP:  10; 6HR PCP: TRACE;                

ELLSWORTH        N/A     10   1  67 N16       30.37F WCI  -7          
LYONS          NOT AVBL                                               
MCPHERSON      CLOUDY    15   2  57 N22       30.33F WCI  -3          
6HR MIN TEMP:   9; 6HR MAX TEMP:  15;                                

HAYS           CLOUDY     6  -2  69 N15       30.38R WCI -12          
6HR MIN TEMP:   5; 6HR MAX TEMP:   6;                                


....South Central Kansas....
  
CITY           SKY/WX    TMP DP  RH WIND       PRES   REMARKS
HUTCHINSON     CLOUDY    15   4  61 N17G25    30.31F WCI  -1          
6HR MIN TEMP:  10; 6HR MAX TEMP:  16;                                

NEWTON         PTSUNNY   19   9  63 N22       30.28F WCI   3          
6HR MIN TEMP:  10; 6HR MAX TEMP:  20; 6HR PCP: TRACE;                

KINGMAN        CLOUDY    16   7  67 N17G25    30.29F WCI   0          
WICHITA (ICT)  CLOUDY    17   7  64 N17       30.30F WCI   1          
6HR MIN TEMP:  13; 6HR MAX TEMP:  17; 6HR PCP: TRACE;                

JABARA ARPT    CLOUDY    18   7  62 N18G25    30.29S WCI   2          
6HR MIN TEMP:  12; 6HR MAX TEMP:  18; 6HR PCP: TRACE;                

BEECH ARPT     CLOUDY    17   8  67 N13G20    30.29S WCI   3          
6HR MIN TEMP:  12; 6HR MAX TEMP:  17;                                

MCCONNELL AFB  CLOUDY    16   7  67 N18       30.27F WCI   0          
6HR MIN TEMP:  12; 6HR MAX TEMP:  16; 6HR PCP: TRACE;                

BENTON         NOT AVBL                                               
EL DORADO      CLOUDY    19  10  68 N14       30.28S WCI   6          
AUGUSTA        CLOUDY    18   5  57 N12G21    30.30S WCI   5          
WELLINGTON     CLOUDY    16   8  71 N17       30.30F WCI   0          
6HR MIN TEMP:  14; 6HR MAX TEMP:  16;                                

WINFIELD       CLOUDY    18  10  71 N20G25    30.30S WCI   2          
6HR MIN TEMP:  16; 6HR MAX TEMP:  19; 6HR PCP: TRACE;                

 
....Southeast Kansas....
  
CITY           SKY/WX    TMP DP  RH WIND       PRES   REMARKS
EUREKA         CLOUDY    17   9  72 N15G22    30.30F WCI   2          
6HR MIN TEMP:  13; 6HR MAX TEMP:  17;                                

IOLA           CLOUDY    17  12  80 N16       30.30F WCI   2          
6HR MIN TEMP:  16; 6HR MAX TEMP:  18;                                

CHANUTE        CLOUDY    19  12  74 N17G25    30.27F WCI   4          
6HR MIN TEMP:  18; 6HR MAX TEMP:  21; 6HR PCP: TRACE;                

PARSONS        CLOUDY    20  14  77 N9G20     30.28F WCI   9          
6HR MIN TEMP:  19; 6HR MAX TEMP:  21;                                

COFFEYVILLE    CLOUDY    21  16  81 N15       30.28F WCI   8          
6HR MIN TEMP:  20; 6HR MAX TEMP:  23;                                

INDEPENDENCE   CLOUDY    20  13  77 N18       30.30F WCI   4          
6HR MIN TEMP:  19; 6HR MAX TEMP:  21;                                

FORT SCOTT     CLOUDY    19  14  79 N13       30.28S WCI   6          
6HR MIN TEMP:  19; 6HR MAX TEMP:  21;                                

PITTSBURG      CLOUDY    21  18  88 N10       30.25F WCI  10          
6HR MIN TEMP:  21; 6HR MAX TEMP:  23;                                


....Western Kansas....
  
CITY           SKY/WX    TMP DP  RH WIND       PRES   REMARKS
GOODLAND       CLOUDY     1  -4  79 NE8       30.21F HAZE    WCI -13  
6HR MIN TEMP:   1; 6HR MAX TEMP:   2;                                

HILL CITY      CLOUDY     4  -4  69 N10       30.39S WCI -11          
6HR MIN TEMP:   2; 6HR MAX TEMP:   5;                                

LIBERAL        FLURRIES  11   7  84 N14       30.23F WCI  -5          
6HR MIN TEMP:   8; 6HR MAX TEMP:  11; 6HR PCP: TRACE;                

GARDEN CITY    CLOUDY     6   2  83 NE17      30.26F WCI -13          
6HR MIN TEMP:   4; 6HR MAX TEMP:   7; 6HR PCP: TRACE;                

DODGE CITY     CLOUDY     8   3  80 N17       30.26F WCI -10          
6HR MIN TEMP:   6; 6HR MAX TEMP:   9; 6HR PCP: TRACE;                

PRATT          CLOUDY    14   4  65 N20       30.30F WCI  -4          
6HR MIN TEMP:  10; 6HR MAX TEMP:  14;                                

MEDICINE LODGE   N/A     16   6  65 N15G25      N/A  WCI   1          
6HR MIN TEMP:  12; 6HR MAX TEMP:  16;                                


....Northeast Kansas....
  
CITY           SKY/WX    TMP DP  RH WIND       PRES   REMARKS
CONCORDIA      CLOUDY     8  -3  61 N12       30.41R WCI  -7          
6HR MIN TEMP:   6; 6HR MAX TEMP:   8;                                

TOPEKA         PTSUNNY   22   4  46 N14       30.37F WCI   9          
6HR MIN TEMP:  12; 6HR MAX TEMP:  22;                                

MANHATTAN      SUNNY     17  -1  45 N9        30.39F WCI   6          
6HR MIN TEMP:  10; 6HR MAX TEMP:  17;                                

LAWRENCE       CLOUDY    21   6  52 N17       30.36F WCI   7          
6HR MIN TEMP:  12; 6HR MAX TEMP:  21;                                

OLATHE         CLOUDY    18   7  62 N14G22    30.31F WCI   4          
6HR MIN TEMP:  13; 6HR MAX TEMP:  19;                                

EMPORIA        CLOUDY    20   6  55 N16G25    30.29F WCI   6          
6HR MIN TEMP:  12; 6HR MAX TEMP:  20;                                


....Oklahoma....
  
CITY           SKY/WX    TMP DP  RH WIND       PRES   REMARKS
GAGE           LGT SNOW  16   9  74 N14       30.24F WCI   2          
6HR MIN TEMP:  13; 6HR MAX TEMP:  16; 6HR PCP: TRACE;                

PONCA CITY     CLOUDY    20  13  74 N16       30.28F WCI   6          
6HR MIN TEMP:  19; 6HR MAX TEMP:  21;                                

BARTLESVILLE   CLOUDY    21  16  81 N16G24    30.29F WCI   7          
6HR MIN TEMP:  20; 6HR MAX TEMP:  22;                                

TULSA          FRZ DRZL  24  21  88 N12       30.25F WCI  13          
6HR MIN TEMP:  23; 6HR MAX TEMP:  27; 6HR PCP: TRACE;                

OKLAHOMA CITY  CLOUDY    20  17  88 N22       30.21F WCI   3          
6HR MIN TEMP:  20; 6HR MAX TEMP:  24;                                


Note: "fair" indicates few or no clouds below 12,000 feet with no
significant weather and/or obstructions to visibility.